User: anonymous   Login
Location: Kikino
(54.4440°N, 112.0940°W)
Time: 14:51:08
(UTC+00:00)
Language:

Transit 2A - Orbit

View from above orbital plane
View from above orbital plane
View from above satellite
View from above satellite

Ground track
Ground track

The orbit data is extracted from the following two-line orbital elements,

1 00045U 60007A   24139.91692711  .00000776  00000-0  21647-3 0  9990
2 00045  66.6935 206.8556 0253829 351.5456   8.1403 14.34698480271076
Epoch (UTC): 18 May 2024 22:00:22
Eccentricity: 0.0253829
inclination: 66.6935°
perigee height: 594 km
apogee height: 957 km
right ascension of ascending node: 206.8556°
argument of perigee: 351.5456°
revolutions per day: 14.34698480
mean anomaly at epoch: 8.1403°
orbit number at epoch: 27107

The dashed part of the orbit path shows where the satellite is in the earth's shadow,  

DLR